{"data":{"norad_id":53285,"intl_designator":"2022-086AV","name":"STARLINK-4173","alt_names":[],"object_type":"PAYLOAD","status":"ACTIVE","operator":null,"country":"US","launch_date":"2022-07-24","launch_site_code":"AFETR","launch_vehicle":null,"mission":null,"orbit_class":"UNKNOWN","rcs_meters":null,"size_class":null,"mass_kg":null,"dimensions":null,"purposes":["comms"],"wikipedia_slug":null,"has_3d_model":false,"image_url":null,"decayed_at":null,"tle_current":{"epoch":"2026-09-19T22:33:41.520096Z","epoch_age_seconds":123617,"freshness":"FRESH","line1":"1 53285U 22086AV  26262.94006389  .00000441  00000+0  23537-4 0  9990","line2":"2 53285  53.1617  15.9947 0000997  81.0059 279.1056 15.35406140230735","mean_motion":15.3540614,"eccentricity":9.97e-5,"inclination_deg":53.1617,"raan_deg":15.9947,"arg_perigee_deg":81.0059,"mean_anomaly_deg":279.1056,"bstar":2.3537e-5,"rev_number":23073,"period_min":93.786260357146,"perigee_km":459.03267944727,"apogee_km":460.39614701907,"semimajor_km":6837.8514132332,"source":"CELESTRAK","updated_at":"2026-09-20T09:00:40.220295Z"}}}